, LA

(GMT )
Salt Point

Weather History for KP92 - November, 2013

Change the Weather History Date:

Thursday, November 7, 2013

  Actual Average Record
Temperature  
Mean Temperature 62 °F -  
Max Temperature 71 °F 70 °F 79 °F (2000)
Min Temperature 51 °F 55 °F 43 °F (2010)
Degree Days  
Heating Degree Days 4    
Growing Degree Days 12 (Base 50)    
Moisture  
Dew Point 51 °F    
Average Humidity 70    
Maximum Humidity 90    
Minimum Humidity 40    
Precipitation  
Precipitation 0.00 in - - ()
Sea Level Pressure  
Sea Level Pressure 30.23 in    
Wind  
Wind Speed 8 mph (North)    
Max Wind Speed 13 mph    
Max Gust Speed 23 mph    
Averages and records for this station are not official NWS values.
T = Trace of Precipitation, MM = Missing Value Source: NWS Daily Summary

Daily Weather History Graph

Daily Weather History Graph

Search for Another Location

Airport or City:

Trip Planner

Search our weather history database for the weather conditions in past years. The results will help you decide how hot, cold, wet, or windy it might be!

Date:

Astronomy

Nov. 07, 2013 Rise Set
Actual Time 6:23 AM CST 5:14 PM CST
Civil Twilight 5:58 AM CST 5:38 PM CST
Nautical Twilight 5:30 AM CST 6:07 PM CST
Astronomical Twilight 5:01 AM CST 6:35 PM CST
Moon 10:28 AM CST (11/7) 9:28 PM CST (11/7)
Length of Visible Light 11h 40m
Length of Day
10h 50m
Waxing Crescent, 23% of the Moon is Illuminated
Nov 7
Waxing Crescent
Nov 9
First Quarter
Nov 17
Full
Nov 25
Last Quarter
Dec 2
New

Hourly Weather History & Observations

Time (CST) Temp. Dew Point Humidity Pressure Visibility Wind Dir Wind Speed Gust Speed Precip Events Conditions
12:53 AM 71.1 °F 66.9 °F 87% 30.10 in - North 4.6 mph - N/A   Unknown
1:53 AM 70.0 °F 64.9 °F 84% 30.11 in - North 8.1 mph - N/A   Unknown
2:53 AM 68.0 °F 64.9 °F 90% 30.11 in - North 9.2 mph - N/A   Unknown
3:53 AM 66.0 °F 63.0 °F 90% 30.13 in - North 9.2 mph 16.1 mph N/A   Unknown
4:53 AM 64.9 °F 61.0 °F 87% 30.15 in - North 6.9 mph - N/A   Unknown
5:53 AM 64.0 °F 60.1 °F 87% 30.17 in - North 8.1 mph 18.4 mph N/A   Unknown
6:53 AM 62.1 °F 57.9 °F 86% 30.21 in - North 12.7 mph 19.6 mph N/A   Unknown
7:53 AM 61.0 °F 55.9 °F 83% 30.23 in - North 10.4 mph 18.4 mph N/A   Unknown
8:53 AM 60.1 °F 54.0 °F 80% 30.25 in - North 11.5 mph 19.6 mph N/A   Unknown
9:53 AM 60.1 °F 52.0 °F 75% 30.27 in - North 12.7 mph 23.0 mph N/A   Unknown
10:53 AM 62.1 °F 51.1 °F 67% 30.27 in - North 8.1 mph 18.4 mph N/A   Unknown
11:53 AM 61.0 °F 48.0 °F 62% 30.25 in - North 12.7 mph 19.6 mph N/A   Unknown
12:53 PM 64.0 °F 46.9 °F 54% 30.22 in - North 9.2 mph 18.4 mph N/A   Unknown
1:53 PM 66.9 °F 44.1 °F 44% 30.21 in - North 9.2 mph 20.7 mph N/A   Unknown
2:53 PM 66.9 °F 42.1 °F 40% 30.21 in - North 10.4 mph 20.7 mph N/A   Unknown
3:53 PM 64.9 °F 42.1 °F 43% 30.22 in - North 8.1 mph 16.1 mph N/A   Unknown
4:53 PM 63.0 °F 43.0 °F 48% 30.23 in - North 6.9 mph - N/A   Unknown
5:53 PM 60.1 °F 43.0 °F 53% 30.25 in - North 8.1 mph - N/A   Unknown
6:53 PM 57.9 °F 45.0 °F 62% 30.28 in - North 4.6 mph - N/A   Unknown
7:53 PM 55.9 °F 46.9 °F 72% 30.30 in - North 4.6 mph - N/A   Unknown
8:53 PM 55.0 °F 44.1 °F 67% 30.32 in - North 6.9 mph - N/A   Unknown
9:53 PM 53.1 °F 44.1 °F 71% 30.32 in - Variable 3.5 mph - N/A   Unknown
10:53 PM 52.0 °F 44.1 °F 74% 30.30 in - Calm Calm - N/A   Unknown
11:53 PM 51.1 °F 43.0 °F 74% 30.29 in - Variable 3.5 mph - N/A   Unknown